星链-30324 (STARLINK-30324 )

导读

STARLINK-30324是美国太空探索技术公司星链互联网卫星星座的一员,于2023年8月17日发射。它延续星链星座低轨部署设计,依托批量发射组网方案,为全球提供低延迟高速互联网服务,尤其覆盖偏远网络空白区域,进一步扩充星链低轨星座的服务覆盖能力与网络冗余度。

基本信息
目录编号:
57640
目录名称:
STARLINK-30324
国际标识:
2023-122J
轨道中心:
EARTH
卫星名称:
星链-30324
卫星全名:
星链-30324 (STARLINK-30324 )
卫星状态:
在轨 (已飞行1104 天)
发射日期:
2023-08-17 UTC
国别 :
美国 (US)
星等 :
--
轨道信息
数据来源 国际轨道数据
星历时间: 2026-08-25T17:12:21+0800
10小时前
查看轨道信息
半长轴: 6861.192km
偏心率: 0.0000946
轨道倾角: 43.000°
近地点辐角 274.489°
升交点赤经 220.052°
平近点角 85.585°
近地点: 482.405km
远地点: 483.705km
周期: 94.267分钟
每日圈数: 15.275783
详细信息
固有亮度:
5
最大亮度:
0.3
卫星平台:
Starlink v2.0 mini
覆盖范围:
全球
运营商:
太空探索技术公司
运营商所在国:
美国
制造商(研发单位):
太空探索技术公司
制造商所在国:
美国
使用方式:
暂无
卫星简介
星链(Starlink)计划是由太空探索技术公司(SpaceX)提出的一个巨型低轨卫星互联网星座项目,计划在2019年至2024年间在太空搭建由约1.2万颗卫星组成的“星链”网络,其中1584颗将部署在地球上空550千米处的近地轨道,并从2020年开始工作。该卫星仍在工作。
2D轨道图
3D轨道图
轨道高度分析图
轨道倾角分析图
轨道综合分析图
查看轨道综合分析图